STARLINK-38040, 69717

Orbit data source: Space-Track

STARLINK-38040, 69717 is a payload satellite owned by SpaceX/Seattle (US) in SSO that was launched on Sun, 28 Jun 2026 UTC via an FALCON 9 launch vehicle from the Air Force Western Test Range (AFWTR). Payload-class satellites include a variety of spacecraft equipped with specific instruments for various scientific and technological missions. These include communications satellites like Starlink; space stations such as the ISS; scientific satellites like the Hubble; Earth observation satellites from companies like Planet Labs, Umbra, and HawkEye 360; GPS; miniature CubeSats for education and research; and military/defense satellites.

Loading next visibility...
Identifier
69717, 2026-147P
Orbit
SSO
Country
Flag of USUS
Related business
Manufacturer
SpaceX/Seattle
Mission
Operational spacecraft
Bus & Motor
STARLINK V2MO, Unknown motor
Mass
575 kg wet, ~530 kg dry
Launch date (UTC)
2026-06-28 (2 weeks ago)
Launch vehicle
FALCON 9
Launch site
Air Force Western Test Range (AFWTR)
Object type
Payload
Rocket body
Debris
Shape & HBR
Unknown shape, 17.7 m
Radar Cross Section
Large (>1 m²)

Expand to show TLE details & history
Last TLE update: 8 hours ago

TLE from 8 hours ago
0 STARLINK-38040
1 69717U 26147P   26193.05762831  .00171491  00000-0  87622-3 0  9994
2 69717  97.2855 229.2871 0000407  64.6612 295.4698 15.80874252  3362
Epoch: 2026-07-12T01:22Z
TLE epoch observation values (Epoch: 2026-07-12T01:22:59.085Z)
Latitude
-0.00009°
Longitude
-81.42103°
Altitude
331.026 km
Speed
7.71 km/s
True Right ascension
15h 17m 08s
True Declination
0° 00' 00"
Sunlit
Object was in full shadow at epoch
Visualization orbit readout
Latitude
Unknown
Longitude
Unknown
Altitude
Unknown
Speed
Unknown
Apparent Right ascension
Unknown
Apparent Declination
Unknown
Sunlit
N/A
Visualization observer readout
Local Sidereal Time
21:43:35
Azimuth
Unknown
Elevation
Unknown
Doppler factor
Unknown
Orbital elements
Apogee altitude
325.12 km
Perigee altitude
324.574 km
Semi-major axis
6,702.984 km
Eccentricity
0.00004
Inclination
97.2855°
RAAN
229.2871°
Arg. of periapsis
64.6612°
True anomaly
295.46559°
Mean anomaly
295.4698°
Eccentric anomaly
295.46769°
Mean motion
3.95495 °/min
Orbital period
91.03 mins
BSTAR
0.00087622
Loading maneuver chart data...
Computing Atmospheric mass density...
Loading historical data...
Loading historical data...
Loading historical data...
Loading historical data...
Loading historical data...
Loading historical data...
Loading historical data...

Documentation

Showing up to 5 results
|